This is the latest recevied weather packets stored in our database for station/object W1HS. If no packets are shown the sender has not sent any weather packets the latest 10 day(s).
| Time | Temp. | Humidity | Pressure | Rain* | Wind** | Luminosity | Snow |
|---|---|---|---|---|---|---|---|
| 1777419018 | 13.89° C | 47% | 998 hPa | 0 mm | - | 14 W/m² | - |
| 1777418418 | 14.44° C | 47% | 998 hPa | 0 mm | - | 25 W/m² | - |
| 1777417819 | 15° C | 46% | 998 hPa | 0 mm | - | 37 W/m² | - |
| 1777417218 | 15° C | 44% | 998.1 hPa | 0 mm | - | 51 W/m² | - |
| 1777416627 | 15.56° C | 43% | 998 hPa | 0 mm | - | 65 W/m² | - |
| 1777416018 | 16.11° C | 43% | 998.1 hPa | 0 mm | - | 77 W/m² | - |
| 1777415418 | 16.11° C | 43% | 997.9 hPa | 0 mm | - | 91 W/m² | - |
| 1777414821 | 16.67° C | 42% | 998.1 hPa | 0 mm | - | 98 W/m² | - |
| 1777414220 | 17.22° C | 41% | 998.2 hPa | 0 mm | - | 105 W/m² | - |
| 1777413622 | 17.22° C | 41% | 998.2 hPa | 0 mm | - | 120 W/m² | - |
| 1777413020 | 17.78° C | 40% | 998.5 hPa | 0 mm | - | 130 W/m² | - |
| 1777412420 | 17.78° C | 40% | 998.5 hPa | 0 mm | - | 144 W/m² | - |
| 1777411820 | 18.33° C | 39% | 998.5 hPa | 0 mm | - | 153 W/m² | - |
| 1777411220 | 18.33° C | 39% | 998.6 hPa | 0 mm | - | 179 W/m² | - |
| 1777410620 | 18.89° C | 38% | 998.7 hPa | 0 mm | - | 208 W/m² | - |
| 1777410020 | 18.89° C | 39% | 998.8 hPa | 0 mm | - | 230 W/m² | - |
| 1777409420 | 18.89° C | 37% | 998.9 hPa | 0 mm | - | 251 W/m² | - |
| 1777408820 | 18.89° C | 38% | 998.9 hPa | 0 mm | - | 257 W/m² | - |
| 1777408220 | 18.89° C | 38% | 999.2 hPa | 0 mm | - | 287 W/m² | - |
| 1777407620 | 19.44° C | 37% | 999.3 hPa | 0 mm | - | 357 W/m² | - |
| 1777407020 | 19.44° C | 37% | 999.3 hPa | 0 mm | - | 397 W/m² | - |
| 1777406420 | 19.44° C | 38% | 999.3 hPa | 0 mm | - | 436 W/m² | - |
| 1777405820 | 19.44° C | 37% | 999.5 hPa | 0 mm | - | 503 W/m² | - |
| 1777405220 | 20° C | 36% | 999.6 hPa | 0 mm | - | 401 W/m² | - |
| 1777404620 | 20° C | 36% | 999.9 hPa | 0 mm | - | 423 W/m² | - |
* Rain latest hour (hover to see other rain measurements)
** Current wind speed in m/s (hover to see current wind gust speed)